#timestamp,LO_Frequency,Hit 
1500681615.5,286047003.2,N
1500681635.3,286047005.3,N
1500681655.1,286047003.3,N
1500681675.9,286047004.2,N
1500681695.7,286047003.4,N
1500681715.6,286047002.9,N
1500681735.4,286047003.0,N
1500681755.2,286047005.8,N
1500681775.1,286047005.3,N
1500681776.0,286047005.3,N
1500681795.8,286047005.8,N
1500681815.7,286047005.2,N
1500681835.5,286047004.5,N
1500681855.3,286047007.5,N
1500681875.2,286047004.9,N
1500681895.0,286047005.8,N
1500681895.9,286047005.8,N
1500681915.7,286047005.4,N
1500681935.6,286047005.3,N
1500681955.4,286047005.1,N
1500681975.3,286047005.8,N
1500681995.1,286047004.7,N
1500681996.0,286047004.7,N
1500682015.8,286047005.2,N
1500682035.7,286047005.2,N
1500682055.5,286047004.5,N
1500682075.4,286047007.3,N
1500682095.2,286047006.8,N
1500682115.0,286047005.2,N
1500682115.9,286047005.2,N
1500682135.8,286047004.9,N
1500682155.6,286047004.8,N
1500682175.4,286047005.4,N
1500682195.3,286047005.0,N
1500682215.1,286047004.5,N
1500682235.9,286047007.2,N
1500682255.7,286047007.0,N
1500682275.5,286047007.4,N
1500682295.4,286047004.8,N
1500682315.2,286047005.3,N
1500682335.0,286047005.7,N
1500682336.0,286047005.7,N
1500682355.8,286047004.7,N
1500682375.6,286047005.1,N
1500682395.5,286047005.2,N
1500682415.3,286047007.5,N
1500682435.1,286047004.6,N
1500682455.9,286047004.6,N
1500682475.7,286047005.2,N
1500682495.6,286047003.8,N
1500682515.4,286047003.5,N
1500682535.2,286047003.5,N
1500682555.1,286047002.9,N
1500682556.0,286047002.9,N
1500682575.8,286047004.9,N
1500682595.6,286047005.4,N
1500682615.5,286047005.4,N
1500682635.3,286047004.8,N
1500682655.2,286047004.8,N
1500682675.9,286047005.2,N
1500682695.7,286047004.7,N
1500682715.6,286047007.1,N
1500682735.4,286047007.3,N
1500682755.3,286047007.6,N
1500682775.1,286047007.2,N
1500682776.0,286047007.2,N
1500682795.8,286047004.5,N
1500682815.7,286047006.7,N
1500682835.5,286047006.8,N
1500682855.3,286047004.9,N
1500682875.2,286047005.8,N
1500682895.0,286047004.6,N
1500682895.9,286047004.6,N
1500682915.8,286047005.6,N
1500682935.6,286047005.6,N
1500682955.4,286047005.7,N
1500682975.3,286047005.4,N
1500682995.1,286047005.2,N
1500683015.9,286047005.2,N
1500683035.7,286047005.2,N
1500683055.6,286047004.7,N
1500683075.4,286047005.0,N
1500683095.2,286047004.6,N
1500683115.1,286047006.2,N
1500683116.0,286047006.2,N
1500683135.8,286047005.0,N
1500683155.6,286047005.4,N
1500683175.5,286047005.0,N
1500683195.3,286047004.8,N
1500683215.2,286047004.8,N
1500683235.0,286047007.2,N
1500683235.9,286047007.2,N
1500683255.7,286047005.0,N
1500683275.6,286047007.2,N
1500683295.4,286047006.6,N
1500683315.3,286047009.2,N
1500683335.1,286047006.4,N
1500683336.0,286047006.4,N
1500683355.8,286047006.4,N
1500683375.7,286047006.4,N
1500683395.5,286047007.2,N
1500683415.4,286047007.6,N
1500683435.2,286047006.8,N
1500683455.0,286047007.5,N
1500683455.9,286047007.5,N
1500683475.8,286047004.7,N
1500683495.6,286047006.4,N
1500683515.4,286047006.7,N
1500683535.3,286047007.4,N
1500683555.1,286047006.9,N
1500683575.9,286047009.1,N
1500683595.7,286047006.2,N
1500683615.5,286047006.2,N
1500683635.4,286047006.4,N
1500683655.2,286047007.4,N
1500683675.0,286047007.1,N
1500683676.0,286047007.1,N
1500683695.8,286047004.6,N
1500683715.6,286047006.7,N
1500683735.5,286047006.9,N
1500683755.3,286047004.5,N
1500683775.1,286047007.0,N
1500683795.9,286047006.3,N
1500683815.7,286047007.1,N
1500683835.6,286047007.0,N
1500683855.4,286047006.3,N
1500683875.2,286047007.4,N
1500683895.1,286047006.7,N
1500683896.0,286047006.7,N
1500683915.8,286047006.1,N
1500683935.7,286047008.5,N
1500683955.5,286047008.7,N
1500683975.3,286047006.7,N
1500683995.2,286047006.8,N
1500684015.0,286047006.8,N
1500684015.9,286047006.8,N
1500684035.8,286047006.9,N
1500684055.6,286047006.3,N
1500684075.4,286047007.2,N
1500684095.3,286047006.2,N
1500684115.1,286047009.1,N
1500684135.8,286047008.9,N
1500684155.7,286047008.4,N
1500684175.5,286047007.3,N
1500684195.4,286047006.2,N
1500684215.2,286047006.5,N
1500684235.0,286047009.1,N
1500684235.9,286047009.1,N
1500684255.8,286047006.8,N
1500684275.6,286047006.2,N
1500684295.5,286047008.4,N
1500684315.3,286047008.3,N
1500684335.1,286047006.5,N
1500684355.9,286047009.2,N
1500684375.7,286047008.5,N
1500684395.5,286047007.7,N
1500684415.4,286047008.3,N
1500684465.3,286047007.8,Y
1500684475.2,286047005.3,N
1500684495.0,286047000.5,N
1500684495.9,286047000.5,N
1500684515.8,286046999.8,N
1500684535.6,286047000.3,N
1500684555.4,286047000.0,N
1500684575.3,286047002.6,N
1500684595.1,286047002.5,N
1500684615.8,286047002.4,N
1500684635.7,286047001.8,N
1500684655.5,286047001.4,N
1500684675.4,286047001.8,N
1500684695.2,286047002.1,N
1500684715.0,286047002.5,N
1500684715.9,286047002.5,N
1500684735.8,286047002.7,N
1500684755.6,286047000.1,N
1500684775.5,286047000.2,N
1500684795.3,286047002.7,N
1500684815.1,286047002.8,N
1500684835.9,286047011.9,N
1500684855.7,286047002.7,N
1500684875.6,286047000.3,N
1500684895.4,286046998.4,N
1500684915.2,286046998.7,N
1500684935.1,286046998.6,N
1500684936.0,286046998.6,N
1500684955.8,286046998.1,N
1500684975.7,286046999.2,N
1500684995.5,286046999.6,N
1500685015.3,286046996.5,N
1500685035.2,286046999.1,N
1500685055.0,286046996.9,N
1500685055.9,286046996.9,N
1500685075.8,286046997.7,N
1500685095.6,286046995.4,N
1500685115.4,286046998.0,N
1500685135.3,286046997.7,N
1500685155.1,286046995.4,N
1500685175.8,286046995.4,N
1500685195.7,286046996.2,N
